Wind_Speed
21 22 24 24 25 26 26 28 28 28 27 28 28 28 27 27 29 27 24 24 25 25 25 25 26 26 27 28 28 29 30 31 32 33 34 34 35 35 36 36 36 36 36
23 25 26 27 28 29 31 31 31 31 32 32 32 31 31 30 30 30 28 27 27 28 28 28 28 29 29 30 31 32 33 34 35 36 37 38 39 40 40 40 40 40 40
25 26 27 29 31 31 33 33 32 32 33 34 34 34 33 32 31 32 32 31 29 28 29 29 30 31 32 33 33 34 36 37 38 39 40 41 42 43 43 43 44 44 44
27 28 30 32 32 32 32 32 33 33 33 33 33 33 34 34 34 34 33 32 31 30 30 31 32 33 34 35 36 38 39 40 41 42 43 44 45 46 46 47 47 47 47
30 30 32 34 33 34 33 32 32 31 31 31 30 30 31 33 35 34 34 34 33 32 32 31 33 35 37 38 40 41 42 43 44 45 46 47 48 49 50 50 51 51 51
32 33 34 34 34 34 33 32 31 29 29 28 28 28 28 30 32 32 33 34 34 34 35 36 36 37 38 41 42 44 45 46 47 48 49 51 52 53 54 54 55 55 54
35 34 35 34 35 35 33 32 31 30 29 28 27 26 28 28 30 31 32 33 35 36 38 40 40 40 41 42 44 46 48 49 51 52 54 55 56 57 58 59 59 59 59
36 36 37 36 36 35 33 32 32 31 29 28 28 28 28 29 30 31 32 34 36 38 40 42 42 44 46 47 48 49 51 53 55 57 59 60 61 63 63 63 64 64 64
39 39 39 38 37 36 35 33 33 33 32 32 31 32 32 32 33 34 35 38 40 41 43 45 47 49 50 52 54 56 57 58 60 62 64 66 67 68 68 68 68 68 68
42 41 41 40 39 38 37 35 35 35 35 35 36 36 36 37 38 39 41 43 45 46 48 49 51 54 56 58 60 62 63 64 65 67 69 70 71 72 73 73 73 72 72
43 43 43 42 41 40 39 38 38 38 38 39 39 40 41 42 44 45 47 49 51 53 54 55 57 59 61 63 65 66 67 69 69 70 71 72 73 74 75 75 74 74 74
45 44 45 44 43 42 42 42 42 42 43 43 44 45 46 48 49 50 52 53 54 56 58 60 62 64 66 68 69 70 70 71 71 72 73 74 74 74 74 74 74 74 74
46 46 46 46 46 45 46 46 46 46 47 48 49 49 50 52 53 54 56 57 58 59 62 64 66 67 69 70 72 72 72 73 73 73 73 72 72 72 72 72 72 72 71
47 48 48 48 48 49 49 49 50 50 51 52 52 53 54 55 56 57 59 60 61 62 64 65 67 69 71 71 72 72 72 72 71 70 70 70 70 70 70 69 69 68 68
50 50 50 51 52 52 53 53 53 54 54 55 55 56 56 57 58 59 61 62 63 63 64 65 67 69 70 70 70 70 70 69 69 69 69 68 67 67 66 66 66 65 65
52 52 53 54 55 55 56 57 57 57 58 58 58 58 58 59 60 60 61 62 63 63 63 64 65 66 66 66 67 67 66 66 65 65 64 63 63 63 63 63 63 62 61
54 55 56 58 59 59 60 60 60 60 59 59 59 59 59 59 59 60 60 61 61 61 61 60 61 62 63 63 64 63 63 61 60 60 59 59 58 57 57 56 56 56 56
57 58 59 60 61 61 61 60 61 61 61 60 60 59 59 58 58 58 57 58 58 58 58 57 58 60 60 60 59 57 57 56 54 53 52 51 50 49 49 48 48 47 47
59 60 60 60 61 61 61 61 62 61 61 60 59 58 57 56 55 55 55 55 55 55 56 56 56 56 54 53 52 52 50 49 48 48 47 45 44 43 42 42 41 41 40
60 60 60 61 61 61 61 61 60 59 58 57 56 55 54 53 52 52 52 52 53 53 53 53 51 49 48 47 46 46 44 44 43 42 41 39 37 36 36 36 37 37 37
59 60 60 60 60 60 59 58 58 57 55 54 53 52 51 50 49 49 49 49 50 50 49 47 45 43 41 41 40 40 38 37 36 36 35 34 34 34 33 33 33 33 33
59 59 58 58 58 57 57 56 54 53 52 51 50 49 48 47 47 47 47 47 46 45 43 40 37 37 36 35 34 33 33 32 31 32 32 31 32 31 31 31 31 31 31
56 56 56 56 55 54 53 52 51 50 50 49 47 47 46 46 45 44 43 42 40 38 35 33 32 31 29 28 28 29 30 30 30 30 29 28 29 29 30 30 29 29 29
54 54 53 53 52 51 51 50 49 48 46 46 45 44 43 42 41 39 38 35 33 31 29 28 26 25 24 25 27 28 28 29 29 30 28 27 26 27 27 27 26 25 25
51 51 51 50 49 49 48 47 45 44 43 42 41 39 38 37 35 32 29 27 25 25 24 22 20 21 22 24 25 26 27 27 27 27 27 26 25 24 25 24 23 21 20
49 48 48 47 46 45 43 42 40 39 37 36 34 32 30 28 26 23 21 19 19 18 18 18 18 20 21 23 24 25 25 25 25 24 24 23 23 22 21 21 20 18 17
Wind_Direction
331 329 328 323 321 319 314 309 302 295 290 287 284 282 280 278 279 281 279 279 278 277 276 276 276 276 275 275 274 273 273 273 274 274 274 274 274 273 273 272 272 271 270
330 329 328 326 324 320 317 312 308 300 294 290 285 281 278 277 278 280 279 278 278 277 276 276 276 276 276 276 276 276 276 276 276 276 275 275 274 274 273 273 272 271 270
326 327 328 326 326 324 320 316 309 303 296 292 290 286 280 277 277 278 278 277 276 276 277 276 277 278 278 278 277 278 278 278 278 278 277 276 275 275 274 274 273 272 270
324 325 326 326 325 326 324 318 311 305 299 294 292 290 285 281 279 277 276 278 277 274 274 275 277 279 279 279 279 279 279 279 278 278 278 277 277 276 275 274 273 272 271
321 322 323 324 323 324 324 319 317 313 305 297 292 291 287 284 282 279 276 275 276 277 275 275 277 279 280 282 282 281 280 280 279 279 278 277 277 276 275 274 273 272 271
317 318 320 321 321 323 323 322 321 318 313 304 296 292 288 286 284 282 280 277 278 279 281 282 281 280 281 281 281 281 280 280 279 278 278 277 276 275 274 273 272 271 270
314 316 319 319 320 321 320 318 318 318 316 310 305 301 297 293 291 290 287 282 282 283 283 286 286 284 282 281 280 280 280 280 279 278 277 276 275 275 274 273 272 270 269
309 311 312 314 315 316 317 315 314 314 315 313 309 307 304 301 297 295 292 290 289 287 285 285 283 283 283 283 281 280 279 279 278 277 277 276 274 273 273 272 271 270 269
303 305 307 309 309 310 311 311 311 311 311 310 309 306 305 303 299 296 294 293 291 289 288 287 284 282 281 281 280 280 278 277 277 276 276 275 274 274 273 272 272 271 269
298 300 302 304 304 304 306 306 307 306 306 306 305 304 302 300 298 295 293 291 289 288 286 284 283 282 281 281 280 280 279 278 277 276 276 275 274 274 273 273 272 271 270
294 296 298 299 300 301 302 302 302 303 303 302 301 300 299 298 296 295 293 292 291 290 288 285 283 281 280 280 280 280 279 279 278 277 276 276 276 275 274 274 273 272 271
291 293 295 296 297 299 299 299 299 300 300 299 299 298 297 296 295 294 293 291 289 288 287 285 284 282 281 281 281 281 281 280 279 278 278 278 277 277 276 275 274 273 272
289 291 293 294 295 296 296 297 297 298 298 298 298 297 296 295 294 293 291 290 288 287 286 285 284 283 283 282 283 283 283 282 281 280 280 279 279 278 277 276 275 274 272
288 289 290 291 292 293 294 295 295 296 296 296 297 296 295 294 293 292 290 288 287 286 286 285 284 284 284 284 285 285 285 285 284 283 282 281 280 279 278 277 276 274 272
287 287 288 290 291 292 293 294 294 295 296 296 296 295 293 292 291 290 288 287 287 286 286 286 285 285 286 286 286 286 286 286 286 285 284 283 281 280 279 277 276 274 273
286 287 288 290 291 292 293 293 294 295 295 295 294 293 292 291 290 289 288 288 287 287 286 286 286 286 287 287 287 288 287 287 287 286 285 285 283 282 280 278 276 274 272
285 287 289 289 290 291 292 293 294 295 294 294 294 293 292 290 290 289 288 288 288 288 288 288 288 288 288 288 288 288 288 288 287 287 286 285 285 283 282 279 277 274 272
285 287 288 289 290 291 292 293 294 294 294 294 293 292 292 291 290 290 289 289 289 289 289 289 289 289 289 289 289 289 289 289 288 288 287 287 285 284 282 280 278 275 273
286 287 289 290 291 292 293 293 293 294 294 294 293 293 293 292 292 291 291 290 291 291 291 291 291 291 291 290 290 290 290 291 291 291 290 289 287 284 282 281 278 276 273
287 289 290 291 291 292 293 293 293 293 294 294 294 293 293 293 293 292 292 292 292 292 293 293 293 293 293 292 292 293 293 294 294 293 293 292 290 287 284 281 279 277 275
289 290 290 291 291 292 292 293 293 293 293 294 294 293 293 293 293 293 293 293 294 294 295 295 296 295 295 295 296 297 298 298 297 296 295 295 293 291 288 285 282 279 277
290 290 290 291 292 292 292 293 293 293 293 293 293 293 293 293 293 294 294 294 295 296 297 298 298 298 298 299 301 303 304 304 302 300 300 298 296 294 291 288 285 282 278
291 291 292 292 293 293 293 293 293 293 293 293 293 293 293 293 294 294 295 296 297 297 298 300 300 301 302 304 306 308 309 310 310 308 306 303 300 298 295 292 289 284 281
293 293 293 294 294 294 294 293 293 293 293 292 292 292 293 293 294 294 295 296 298 299 302 304 305 307 309 311 313 314 314 315 314 312 310 308 305 303 301 298 293 287 281
295 295 295 295 295 294 294 294 293 293 292 292 292 292 292 292 293 294 295 297 300 302 306 309 311 314 317 318 319 320 320 320 319 317 315 313 310 308 306 302 297 291 284
296 296 296 296 296 296 296 295 295 295 294 293 293 292 292 291 292 293 296 299 303 308 312 316 320 321 323 325 328 328 328 327 327 325 321 319 317 315 312 307 303 296 288
Height
5883 5882 5881 5880 5878 5877 5875 5874 5872 5871 5870 5870 5869 5868 5867 5866 5864 5864 5865 5865 5864 5864 5864 5864 5863 5863 5863 5863 5863 5862 5862 5862 5862 5861 5861 5861 5860 5860 5860 5860 5860 5861 5861
5881 5879 5878 5876 5874 5872 5871 5868 5866 5865 5864 5863 5862 5862 5861 5860 5859 5857 5859 5859 5859 5858 5858 5858 5857 5857 5856 5856 5856 5855 5855 5854 5854 5853 5853 5852 5852 5851 5851 5851 5851 5851 5851
5877 5875 5874 5872 5870 5868 5865 5862 5859 5858 5856 5856 5855 5855 5855 5854 5853 5852 5851 5852 5852 5852 5851 5851 5850 5850 5849 5849 5848 5847 5846 5845 5845 5844 5843 5842 5842 5841 5841 5841 5840 5841 5841
5873 5871 5869 5868 5865 5863 5860 5857 5854 5851 5850 5849 5848 5848 5847 5847 5846 5846 5845 5844 5845 5845 5845 5844 5843 5842 5841 5840 5839 5838 5837 5836 5835 5834 5833 5832 5831 5830 5830 5829 5829 5829 5829
5869 5867 5865 5863 5860 5858 5854 5851 5848 5845 5843 5842 5841 5841 5840 5840 5839 5839 5838 5838 5837 5836 5837 5837 5836 5834 5833 5832 5830 5828 5827 5826 5824 5823 5821 5820 5819 5818 5817 5816 5816 5816 5816
5865 5863 5860 5858 5855 5852 5849 5846 5843 5840 5838 5836 5835 5834 5834 5833 5832 5831 5831 5830 5829 5828 5827 5827 5827 5826 5824 5822 5820 5818 5816 5814 5812 5811 5809 5807 5806 5804 5803 5802 5802 5802 5802
5859 5857 5855 5853 5850 5847 5844 5840 5838 5835 5832 5830 5829 5829 5828 5827 5826 5825 5823 5822 5822 5821 5820 5817 5816 5815 5814 5812 5809 5807 5804 5802 5800 5797 5795 5793 5791 5790 5789 5787 5787 5786 5786
5854 5852 5850 5847 5845 5842 5839 5836 5833 5830 5828 5826 5824 5823 5822 5821 5820 5818 5816 5815 5813 5811 5810 5808 5806 5804 5801 5799 5797 5795 5792 5789 5786 5783 5780 5777 5775 5773 5772 5771 5770 5769 5769
5848 5846 5844 5841 5839 5836 5833 5831 5828 5825 5823 5820 5818 5816 5814 5813 5812 5810 5808 5807 5804 5802 5799 5796 5793 5791 5788 5785 5782 5779 5777 5774 5770 5767 5763 5760 5758 5756 5754 5753 5752 5751 5751
5841 5839 5837 5834 5832 5829 5826 5824 5821 5819 5816 5813 5811 5808 5806 5804 5802 5801 5798 5795 5793 5790 5787 5784 5780 5777 5773 5770 5766 5762 5760 5757 5754 5750 5745 5742 5739 5736 5734 5733 5732 5731 5730
5833 5831 5829 5826 5824 5821 5819 5816 5813 5811 5808 5805 5802 5799 5796 5794 5791 5788 5786 5783 5779 5775 5771 5768 5765 5761 5757 5753 5749 5745 5742 5738 5735 5731 5726 5722 5719 5716 5714 5712 5710 5710 5709
5824 5822 5820 5817 5815 5812 5810 5807 5804 5801 5798 5795 5792 5788 5785 5781 5778 5775 5772 5769 5765 5761 5756 5751 5747 5743 5738 5734 5730 5726 5722 5718 5714 5710 5706 5702 5698 5695 5692 5690 5689 5688 5687
5815 5813 5810 5808 5805 5803 5800 5797 5794 5791 5787 5784 5780 5776 5772 5768 5764 5760 5756 5753 5749 5746 5740 5734 5729 5724 5719 5714 5710 5706 5701 5697 5693 5689 5685 5681 5677 5674 5671 5669 5667 5666 5665
5804 5803 5800 5798 5795 5792 5789 5786 5783 5779 5775 5771 5767 5763 5758 5754 5749 5745 5741 5737 5733 5729 5724 5718 5711 5706 5701 5695 5690 5686 5681 5676 5672 5668 5664 5660 5656 5653 5650 5647 5645 5644 5643
5795 5792 5790 5787 5784 5781 5777 5774 5770 5766 5762 5757 5753 5749 5744 5739 5734 5729 5724 5719 5716 5712 5708 5701 5694 5688 5683 5677 5671 5667 5662 5657 5652 5647 5643 5639 5636 5632 5629 5626 5624 5622 5621
5784 5781 5778 5775 5772 5768 5764 5760 5756 5752 5747 5743 5738 5733 5728 5723 5718 5713 5708 5702 5697 5693 5691 5685 5677 5671 5665 5660 5654 5649 5644 5639 5634 5629 5624 5620 5616 5612 5609 5606 5603 5602 5601
5772 5769 5766 5762 5758 5754 5750 5745 5741 5737 5732 5727 5722 5717 5713 5707 5702 5697 5691 5686 5680 5675 5672 5668 5661 5654 5649 5643 5637 5631 5626 5621 5617 5612 5607 5602 5597 5593 5590 5587 5584 5583 5582
5760 5756 5752 5748 5744 5739 5735 5730 5725 5721 5716 5712 5707 5702 5697 5692 5686 5681 5676 5670 5665 5659 5655 5652 5646 5639 5633 5627 5621 5615 5610 5605 5601 5596 5591 5586 5582 5578 5574 5571 5568 5566 5566
5746 5742 5737 5733 5728 5724 5720 5715 5710 5705 5700 5695 5691 5686 5681 5676 5671 5666 5661 5656 5651 5645 5640 5635 5630 5624 5618 5612 5606 5601 5596 5591 5586 5581 5577 5573 5568 5564 5561 5558 5555 5553 5552
5732 5727 5723 5718 5713 5709 5704 5699 5694 5690 5685 5680 5675 5671 5666 5662 5657 5652 5647 5642 5637 5632 5626 5621 5615 5610 5604 5598 5593 5588 5584 5578 5573 5568 5564 5560 5556 5552 5549 5546 5544 5542 5541
5717 5712 5708 5703 5698 5693 5688 5683 5679 5675 5670 5666 5661 5656 5652 5648 5644 5639 5634 5629 5624 5618 5613 5608 5603 5598 5592 5587 5582 5577 5572 5568 5563 5558 5554 5550 5545 5542 5539 5536 5533 5531 5530
5702 5697 5692 5687 5682 5677 5673 5668 5664 5660 5655 5651 5647 5643 5639 5635 5631 5626 5621 5616 5611 5606 5602 5597 5592 5587 5583 5578 5573 5568 5563 5559 5555 5550 5545 5541 5536 5532 5529 5526 5523 5521 5519
5686 5681 5677 5672 5668 5662 5657 5653 5649 5645 5641 5637 5634 5630 5626 5622 5619 5614 5610 5605 5601 5596 5592 5588 5584 5579 5575 5571 5566 5561 5556 5551 5546 5541 5536 5532 5528 5524 5520 5516 5514 5511 5510
5671 5667 5662 5657 5653 5648 5643 5639 5635 5631 5627 5624 5621 5617 5614 5610 5607 5603 5599 5596 5592 5588 5585 5581 5577 5573 5569 5564 5560 5555 5550 5545 5539 5533 5528 5524 5520 5516 5511 5508 5504 5502 5501
5657 5652 5647 5643 5639 5634 5629 5625 5621 5618 5614 5611 5608 5605 5602 5599 5596 5593 5591 5588 5585 5582 5579 5575 5572 5568 5564 5559 5555 5549 5544 5539 5533 5527 5522 5517 5513 5509 5505 5500 5497 5495 5493
5643 5638 5633 5629 5624 5620 5616 5612 5608 5605 5602 5599 5597 5594 5593 5590 5588 5586 5585 5583 5581 5578 5575 5572 5568 5565 5560 5556 5550 5545 5539 5533 5528 5523 5517 5512 5507 5502 5499 5495 5491 5489 5487